CW8541 Weather Reports


Display with metric or nautical units.
time (UTC)temp
F
wind
direction
speed
MPH
gust
MPH
rain 1hr
in
rain 24hr
in
rain mn
in
humidity
%
barometer
mb
20171021174750 75 70 1.0 0.0 0.00 0.00 0.00 7 1047.4
20171021174150 75 79 3.0 0.0 0.00 0.00 0.00 9 1047.4
20171021173550 75 129 4.0 0.0 0.00 0.00 0.00 8 1047.6
20171021172950 74 81 3.0 0.0 0.00 0.00 0.00 10 1047.4
20171021172350 75 238 2.0 0.0 0.00 0.00 0.00 8 1047.5
20171021171750 79 235 0.0 0.0 0.00 0.00 0.00 7 1047.2
20171021171150 74 121 3.0 0.0 0.00 0.00 0.00 8 1047.7
20171021170551 73 101 0.0 0.0 0.00 0.00 0.00 10 1047.6
20171021170220 79 99 0.0 0.0 0.00 0.00 0.00 9 1047.7
20171021024747 76 257 5.0 0.0 0.00 0.00 0.00 13 1039.9
20171021024147 75 216 4.0 0.0 0.00 0.00 0.00 13 1039.8
20171021023547 75 257 5.0 0.0 0.00 0.00 0.00 13 1040.0
20171021022947 75 236 0.0 0.0 0.00 0.00 0.00 13 1040.2
20171021022347 75 245 2.0 0.0 0.00 0.00 0.00 12 1039.9
20171021021747 75 256 3.0 0.0 0.00 0.00 0.00 12 1040.2
20171021021251 76 257 6.0 0.0 0.00 0.00 0.00 10 1039.9
20171021021146 76 206 2.0 0.0 0.00 0.00 0.00 10 1040.0
20171021020546 76 238 3.0 0.0 0.00 0.00 0.00 9 1040.0
20171021015946 76 238 3.0 0.0 0.00 0.00 0.00 9 1040.1
20171021015346 76 219 2.0 0.0 0.00 0.00 0.00 9 1039.9
20171021014746 77 242 4.0 0.0 0.00 0.00 0.00 10 1039.8
20171021014146 77 267 11.0 0.0 0.00 0.00 0.00 10 1039.8
20171021013548 77 192 9.0 0.0 0.00 0.00 0.00 9 1039.5
20171021012946 77 233 5.0 0.0 0.00 0.00 0.00 11 1039.6
20171021012346 77 275 5.0 0.0 0.00 0.00 0.00 12 1039.4
20171021011746 77 207 7.0 0.0 0.00 0.00 0.00 11 1039.2
20171021011146 77 239 5.0 0.0 0.00 0.00 0.00 12 1039.1
20171021010546 77 247 3.0 0.0 0.00 0.00 0.00 11 1039.1
20171021005946 78 233 11.0 0.0 0.00 0.00 0.00 10 1039.2
20171021005346 78 234 5.0 0.0 0.00 0.00 0.00 10 1038.7
20171021004746 78 276 5.0 0.0 0.00 0.00 0.00 9 1038.5
20171021004146 79 223 8.0 0.0 0.00 0.00 0.00 11 1038.6
20171021003546 79 193 6.0 0.0 0.00 0.00 0.00 10 1038.6
20171021002951 79 207 3.0 0.0 0.00 0.00 0.00 12 1038.7
20171021002346 79 256 2.0 0.0 0.00 0.00 0.00 10 1038.5
20171021001746 79 215 5.0 0.0 0.00 0.00 0.00 10 1038.6
20171021001146 79 239 5.0 0.0 0.00 0.00 0.00 10 1038.4
20171021000551 80 170 8.0 0.0 0.00 0.00 0.00 10 1038.5
20171020235946 80 230 12.0 0.0 0.00 0.00 0.00 8 1038.1
20171020235351 80 241 7.0 0.0 0.00 0.00 0.00 9 1038.1
20171020234751 81 236 5.0 0.0 0.00 0.00 0.00 9 1038.0
20171020234151 81 216 4.0 0.0 0.00 0.00 0.00 10 1038.0
20171020233546 82 220 7.0 0.0 0.00 0.00 0.00 10 1037.9
20171020232951 82 240 5.0 0.0 0.00 0.00 0.00 8 1037.9
20171020232346 82 236 16.0 0.0 0.00 0.00 0.00 9 1038.0
20171020231746 82 176 11.0 0.0 0.00 0.00 0.00 8 1038.1
20171020231146 82 179 12.0 0.0 0.00 0.00 0.00 9 1037.9
20171020230546 83 213 10.0 0.0 0.00 0.00 0.00 8 1038.2
20171020225946 84 227 10.0 0.0 0.00 0.00 0.00 8 1038.1
20171020225346 84 192 6.0 0.0 0.00 0.00 0.00 7 1037.9
20171020224806 84 242 6.0 0.0 0.00 0.00 0.00 8 1037.9
20171020224745 84 134 8.0 0.0 0.00 0.00 0.00 7 1037.9
20171020224145 85 271 1.0 0.0 0.00 0.00 0.00 6 1038.0
20171020223554 84 167 7.0 0.0 0.00 0.00 0.00 6 1037.9
20171020222945 84 189 12.0 0.0 0.00 0.00 0.00 8 1038.2
20171020222345 83 234 7.0 0.0 0.00 0.00 0.00 6 1038.2
20171020221751 83 201 6.0 0.0 0.00 0.00 0.00 8 1038.2
20171020221451 84 217 5.0 0.0 0.00 0.00 0.00 6 1038.2
20171020215945 84 175 12.0 0.0 0.00 0.00 0.00 5 1038.2
20171020215345 86 130 6.0 0.0 0.00 0.00 0.00 6 1038.2
20171020214745 84 175 12.0 0.0 0.00 0.00 0.00 6 1038.2
20171020214145 86 202 9.0 0.0 0.00 0.00 0.00 6 1038.4
20171020213545 84 113 7.0 0.0 0.00 0.00 0.00 6 1038.2
20171020212945 86 311 8.0 0.0 0.00 0.00 0.00 5 1038.3
20171020212345 84 138 5.0 0.0 0.00 0.00 0.00 6 1038.5
20171020211745 85 211 6.0 0.0 0.00 0.00 0.00 6 1038.6
20171020211145 84 188 5.0 0.0 0.00 0.00 0.00 7 1038.7
20171020210545 84 244 9.0 0.0 0.00 0.00 0.00 7 1038.7
20171020205945 85 236 5.0 0.0 0.00 0.00 0.00 4 1038.2
20171020205345 86 240 5.0 0.0 0.00 0.00 0.00 4 1038.4
20171020204745 84 176 9.0 0.0 0.00 0.00 0.00 4 1038.6
20171020204145 85 242 8.0 0.0 0.00 0.00 0.00 4 1038.6
20171020203545 84 248 4.0 0.0 0.00 0.00 0.00 4 1038.9
20171020202945 85 220 4.0 0.0 0.00 0.00 0.00 4 1038.8
20171020202345 85 163 5.0 0.0 0.00 0.00 0.00 4 1038.8
20171020201745 86 170 6.0 0.0 0.00 0.00 0.00 7 1038.7
20171020201146 87 191 3.0 0.0 0.00 0.00 0.00 4 1039.1
20171020200545 84 191 5.0 0.0 0.00 0.00 0.00 4 1039.6
20171020195945 87 230 2.0 0.0 0.00 0.00 0.00 7 1039.6
20171020195345 84 213 5.0 0.0 0.00 0.00 0.00 4 1040.0
20171020194745 85 220 6.0 0.0 0.00 0.00 0.00 7 1039.8
20171020194145 82 219 9.0 0.0 0.00 0.00 0.00 4 1040.3
20171020193549 84 212 6.0 0.0 0.00 0.00 0.00 4 1040.3
20171020192945 85 174 5.0 0.0 0.00 0.00 0.00 4 1040.1
20171020192345 86 219 2.0 0.0 0.00 0.00 0.00 4 1040.5
20171020191745 83 209 8.0 0.0 0.00 0.00 0.00 4 1040.2
20171020191145 83 175 7.0 0.0 0.00 0.00 0.00 4 1040.6
20171020190545 86 187 5.0 0.0 0.00 0.00 0.00 4 1040.9
20171020185945 86 189 2.0 0.0 0.00 0.00 0.00 4 1041.1
20171020185402 85 216 4.0 0.0 0.00 0.00 0.00 7 1041.0